Time,TemperatureF,DewpointF,PressureIn,WindDirection,WindDirectionDegrees,WindSpeedMPH,WindSpeedGustMPH,Humidity,HourlyPrecipIn,Conditions,Clouds,dailyrainin,SolarRadiationWatts/m^2,SoftwareType,DateUTC
2013-10-14 00:01:00,48.0,46.0,-100.00,NE,51,3.0,5.0,92,0.00,,,0.01,0.000000,,2013-10-14 07:01:00,
2013-10-14 00:11:00,48.0,46.0,-100.00,NE,51,3.0,5.0,92,0.00,,,0.01,0.000000,,2013-10-14 07:11:00,
2013-10-14 00:42:00,48.0,45.0,-100.00,NNE,30,3.0,5.0,90,0.00,,,0.01,0.000000,,2013-10-14 07:42:00,
2013-10-14 00:52:00,48.0,45.0,-100.00,NNE,30,3.0,5.0,90,0.00,,,0.01,0.000000,,2013-10-14 07:52:00,
2013-10-14 01:02:00,48.0,45.0,-100.00,NNE,30,3.0,5.0,90,0.00,,,0.01,0.000000,,2013-10-14 08:02:00,
2013-10-14 01:12:00,48.0,45.0,-100.00,NNE,30,3.0,5.0,90,0.00,,,0.01,0.000000,,2013-10-14 08:12:00,
2013-10-14 01:42:00,49.0,45.0,-100.00,NE,52,3.0,5.0,85,0.00,,,0.01,0.000000,,2013-10-14 08:42:00,
2013-10-14 01:52:00,49.0,45.0,-100.00,NE,52,3.0,5.0,85,0.00,,,0.01,0.000000,,2013-10-14 08:52:00,
2013-10-14 02:01:00,49.0,45.0,-100.00,NE,52,3.0,5.0,85,0.00,,,0.01,0.000000,,2013-10-14 09:01:00,
2013-10-14 02:11:00,49.0,45.0,-100.00,NE,52,3.0,5.0,85,0.00,,,0.01,0.000000,,2013-10-14 09:11:00,
2013-10-14 02:43:00,47.0,45.0,-100.00,ENE,57,2.0,5.0,91,0.00,,,0.01,0.000000,,2013-10-14 09:43:00,
2013-10-14 02:53:00,47.0,45.0,-100.00,ENE,57,2.0,5.0,91,0.00,,,0.01,0.000000,,2013-10-14 09:53:00,
2013-10-14 03:03:00,47.0,45.0,-100.00,ENE,57,2.0,5.0,91,0.00,,,0.01,0.000000,,2013-10-14 10:03:00,
2013-10-14 03:12:00,47.0,45.0,-100.00,ENE,57,2.0,5.0,91,0.00,,,0.01,0.000000,,2013-10-14 10:12:00,
2013-10-14 03:42:00,45.0,43.0,-100.00,NE,42,2.0,4.0,93,0.00,,,0.01,0.000000,,2013-10-14 10:42:00,
2013-10-14 03:53:00,45.0,43.0,-100.00,NE,42,2.0,4.0,93,0.00,,,0.01,0.000000,,2013-10-14 10:53:00,
2013-10-14 04:02:00,45.0,43.0,-100.00,NE,42,2.0,4.0,93,0.00,,,0.01,0.000000,,2013-10-14 11:02:00,
2013-10-14 04:11:00,45.0,43.0,-100.00,NE,42,2.0,4.0,93,0.00,,,0.01,0.000000,,2013-10-14 11:11:00,
2013-10-14 04:42:00,45.0,43.0,-100.00,NE,45,2.0,4.0,94,0.00,,,0.01,0.000000,,2013-10-14 11:42:00,
2013-10-14 04:52:00,45.0,43.0,-100.00,NE,45,2.0,4.0,94,0.00,,,0.01,0.000000,,2013-10-14 11:52:00,
2013-10-14 05:02:00,45.0,43.0,-100.00,NE,45,2.0,4.0,94,0.00,,,0.01,0.000000,,2013-10-14 12:02:00,
2013-10-14 05:12:00,45.0,43.0,-100.00,NE,45,2.0,4.0,94,0.00,,,0.01,0.000000,,2013-10-14 12:12:00,
2013-10-14 05:42:00,44.0,43.0,-100.00,NE,56,2.0,4.0,96,0.00,,,0.00,0.000000,,2013-10-14 12:42:00,
2013-10-14 05:52:00,44.0,43.0,-100.00,NE,56,2.0,4.0,96,0.00,,,0.00,0.000000,,2013-10-14 12:52:00,
2013-10-14 06:02:00,44.0,43.0,-100.00,NE,56,2.0,4.0,96,0.00,,,0.00,0.000000,,2013-10-14 13:02:00,
2013-10-14 06:11:00,44.0,43.0,-100.00,NE,56,2.0,4.0,96,0.00,,,0.00,0.000000,,2013-10-14 13:11:00,
2013-10-14 06:42:00,44.0,43.0,-100.00,ENE,70,2.0,4.0,96,0.00,,,0.00,0.000000,,2013-10-14 13:42:00,
2013-10-14 06:52:00,44.0,43.0,-100.00,ENE,70,2.0,4.0,96,0.00,,,0.00,0.000000,,2013-10-14 13:52:00,
2013-10-14 07:02:00,44.0,43.0,-100.00,ENE,70,2.0,4.0,96,0.00,,,0.00,0.000000,,2013-10-14 14:02:00,
2013-10-14 07:11:00,44.0,43.0,-100.00,ENE,70,2.0,4.0,96,0.00,,,0.00,0.000000,,2013-10-14 14:11:00,
2013-10-14 07:42:00,44.0,43.0,-100.00,ENE,60,3.0,5.0,96,0.00,,,0.00,0.000000,,2013-10-14 14:42:00,
2013-10-14 07:52:00,44.0,43.0,-100.00,ENE,60,3.0,5.0,96,0.00,,,0.00,0.000000,,2013-10-14 14:52:00,
2013-10-14 08:01:00,44.0,43.0,-100.00,ENE,60,3.0,5.0,96,0.00,,,0.00,0.000000,,2013-10-14 15:01:00,
2013-10-14 08:11:00,44.0,43.0,-100.00,ENE,60,3.0,5.0,96,0.00,,,0.00,0.000000,,2013-10-14 15:11:00,
2013-10-14 08:13:00,43.0,42.0,-100.00,NE,35,3.0,4.0,97,0.00,,,0.00,11.000000,,2013-10-14 15:13:00,
2013-10-14 08:44:00,43.0,42.0,-100.00,NE,35,3.0,4.0,97,0.00,,,0.00,11.000000,,2013-10-14 15:44:00,
2013-10-14 08:54:00,43.0,42.0,-100.00,NE,35,3.0,4.0,97,0.00,,,0.00,11.000000,,2013-10-14 15:54:00,
2013-10-14 09:03:00,43.0,42.0,-100.00,NE,35,3.0,4.0,97,0.00,,,0.00,11.000000,,2013-10-14 16:03:00,
2013-10-14 09:43:00,45.0,44.0,-100.00,NE,38,3.0,5.0,96,0.00,,,0.00,34.000000,,2013-10-14 16:43:00,
2013-10-14 09:53:00,45.0,44.0,-100.00,NE,38,3.0,5.0,96,0.00,,,0.00,34.000000,,2013-10-14 16:53:00,
2013-10-14 10:02:00,45.0,44.0,-100.00,NE,38,3.0,5.0,96,0.00,,,0.00,34.000000,,2013-10-14 17:02:00,
2013-10-14 10:11:00,45.0,44.0,-100.00,NE,38,3.0,5.0,96,0.00,,,0.00,34.000000,,2013-10-14 17:11:00,
2013-10-14 10:42:00,51.0,46.0,-100.00,NE,48,4.0,5.0,82,0.00,,,-99.99,366.000000,,2013-10-14 17:42:00,
2013-10-14 10:52:00,51.0,46.0,-100.00,NE,48,4.0,5.0,82,0.00,,,-99.99,366.000000,,2013-10-14 17:52:00,
2013-10-14 11:01:00,51.0,46.0,-100.00,NE,48,4.0,5.0,82,0.00,,,-99.99,366.000000,,2013-10-14 18:01:00,
2013-10-14 11:12:00,51.0,46.0,-100.00,NE,48,4.0,5.0,82,0.00,,,-99.99,366.000000,,2013-10-14 18:12:00,
2013-10-14 11:43:00,56.0,46.0,-100.00,NE,37,4.0,7.0,70,0.00,,,0.00,568.000000,,2013-10-14 18:43:00,
2013-10-14 11:52:00,56.0,46.0,-100.00,NE,37,4.0,7.0,70,0.00,,,0.00,568.000000,,2013-10-14 18:52:00,
2013-10-14 12:01:00,56.0,46.0,-100.00,NE,37,4.0,7.0,70,0.00,,,0.00,568.000000,,2013-10-14 19:01:00,
2013-10-14 12:11:00,56.0,46.0,-100.00,NE,37,4.0,7.0,70,0.00,,,0.00,568.000000,,2013-10-14 19:11:00,
2013-10-14 12:42:00,60.0,47.0,-100.00,NE,37,4.0,7.0,62,0.00,,,0.00,658.000000,,2013-10-14 19:42:00,
2013-10-14 12:52:00,60.0,47.0,-100.00,NE,37,4.0,7.0,62,0.00,,,0.00,658.000000,,2013-10-14 19:52:00,
2013-10-14 13:02:00,60.0,47.0,-100.00,NE,37,4.0,7.0,62,0.00,,,0.00,658.000000,,2013-10-14 20:02:00,
2013-10-14 13:11:00,60.0,47.0,-100.00,NE,37,4.0,7.0,62,0.00,,,0.00,658.000000,,2013-10-14 20:11:00,
2013-10-14 13:43:00,62.0,49.0,-100.00,NNE,14,4.0,7.0,62,0.00,,,0.00,704.000000,,2013-10-14 20:43:00,
2013-10-14 13:52:00,62.0,49.0,-100.00,NNE,14,4.0,7.0,62,0.00,,,0.00,704.000000,,2013-10-14 20:52:00,
2013-10-14 14:02:00,62.0,49.0,-100.00,NNE,14,4.0,7.0,62,0.00,,,0.00,704.000000,,2013-10-14 21:02:00,
2013-10-14 14:12:00,62.0,49.0,-100.00,NNE,14,4.0,7.0,62,0.00,,,0.00,704.000000,,2013-10-14 21:12:00,
2013-10-14 14:13:00,62.0,49.0,-100.00,NNE,13,5.0,8.0,62,0.00,,,0.00,680.000000,,2013-10-14 21:13:00,
2013-10-14 14:44:00,62.0,49.0,-100.00,NNE,13,5.0,8.0,62,0.00,,,0.00,680.000000,,2013-10-14 21:44:00,
2013-10-14 14:54:00,62.0,49.0,-100.00,NNE,13,5.0,8.0,62,0.00,,,0.00,680.000000,,2013-10-14 21:54:00,
2013-10-14 15:04:00,62.0,49.0,-100.00,NNE,13,5.0,8.0,62,0.00,,,0.00,680.000000,,2013-10-14 22:04:00,
2013-10-14 15:43:00,61.0,49.0,-100.00,NNE,20,5.0,8.0,64,0.00,,,0.00,592.000000,,2013-10-14 22:43:00,
2013-10-14 15:54:00,61.0,49.0,-100.00,NNE,20,5.0,8.0,64,0.00,,,0.00,592.000000,,2013-10-14 22:54:00,
2013-10-14 16:03:00,61.0,49.0,-100.00,NNE,20,5.0,8.0,64,0.00,,,0.00,592.000000,,2013-10-14 23:03:00,
2013-10-14 16:12:00,61.0,49.0,-100.00,NNE,20,5.0,8.0,64,0.00,,,0.00,592.000000,,2013-10-14 23:12:00,
2013-10-14 16:42:00,59.0,50.0,-100.00,NNE,20,5.0,11.0,72,0.00,,,0.00,452.000000,,2013-10-14 23:42:00,
2013-10-14 16:52:00,59.0,50.0,-100.00,NNE,20,5.0,11.0,72,0.00,,,0.00,452.000000,,2013-10-14 23:52:00,
2013-10-14 17:02:00,59.0,50.0,-100.00,NNE,20,5.0,11.0,72,0.00,,,0.00,452.000000,,2013-10-15 00:02:00,
2013-10-14 17:11:00,59.0,50.0,-100.00,NNE,20,5.0,11.0,72,0.00,,,0.00,452.000000,,2013-10-15 00:11:00,
2013-10-14 17:42:00,57.0,50.0,-100.00,NNE,13,5.0,10.0,77,0.00,,,0.00,277.000000,,2013-10-15 00:42:00,
2013-10-14 17:52:00,57.0,50.0,-100.00,NNE,13,5.0,10.0,77,0.00,,,0.00,277.000000,,2013-10-15 00:52:00,
2013-10-14 18:01:00,57.0,50.0,-100.00,NNE,13,5.0,10.0,77,0.00,,,0.00,277.000000,,2013-10-15 01:01:00,
2013-10-14 18:11:00,57.0,50.0,-100.00,NNE,13,5.0,10.0,77,0.00,,,0.00,277.000000,,2013-10-15 01:11:00,
2013-10-14 18:42:00,54.0,50.0,-100.00,NNE,13,4.0,8.0,86,0.00,,,0.00,94.000000,,2013-10-15 01:42:00,
2013-10-14 18:52:00,54.0,50.0,-100.00,NNE,13,4.0,8.0,86,0.00,,,0.00,94.000000,,2013-10-15 01:52:00,
2013-10-14 19:02:00,54.0,50.0,-100.00,NNE,13,4.0,8.0,86,0.00,,,0.00,94.000000,,2013-10-15 02:02:00,
2013-10-14 19:12:00,54.0,50.0,-100.00,NNE,13,4.0,8.0,86,0.00,,,0.00,94.000000,,2013-10-15 02:12:00,
2013-10-14 19:42:00,52.0,50.0,-100.00,NNE,28,3.0,7.0,92,0.00,,,0.00,5.000000,,2013-10-15 02:42:00,
2013-10-14 19:52:00,52.0,50.0,-100.00,NNE,28,3.0,7.0,92,0.00,,,0.00,5.000000,,2013-10-15 02:52:00,
2013-10-14 20:02:00,52.0,50.0,-100.00,NNE,28,3.0,7.0,92,0.00,,,0.00,5.000000,,2013-10-15 03:02:00,
2013-10-14 20:12:00,52.0,50.0,-100.00,NNE,28,3.0,7.0,92,0.00,,,0.00,5.000000,,2013-10-15 03:12:00,
2013-10-14 20:13:00,51.0,49.0,-100.00,NE,52,2.0,5.0,94,0.00,,,0.00,0.000000,,2013-10-15 03:13:00,
2013-10-14 20:44:00,51.0,49.0,-100.00,NE,52,2.0,5.0,94,0.00,,,0.00,0.000000,,2013-10-15 03:44:00,
2013-10-14 20:55:00,51.0,49.0,-100.00,NE,52,2.0,5.0,94,0.00,,,0.00,0.000000,,2013-10-15 03:55:00,
2013-10-14 21:04:00,51.0,49.0,-100.00,NE,52,2.0,5.0,94,0.00,,,0.00,0.000000,,2013-10-15 04:04:00,
2013-10-14 21:44:00,51.0,47.0,-100.00,NE,42,3.0,5.0,87,0.00,,,0.00,0.000000,,2013-10-15 04:44:00,
2013-10-14 21:54:00,51.0,47.0,-100.00,NE,42,3.0,5.0,87,0.00,,,0.00,0.000000,,2013-10-15 04:54:00,
2013-10-14 22:03:00,51.0,47.0,-100.00,NE,42,3.0,5.0,87,0.00,,,0.00,0.000000,,2013-10-15 05:03:00,
2013-10-14 22:12:00,51.0,47.0,-100.00,NE,42,3.0,5.0,87,0.00,,,0.00,0.000000,,2013-10-15 05:12:00,
2013-10-14 22:42:00,51.0,46.0,-100.00,NE,48,3.0,5.0,82,0.00,,,0.00,0.000000,,2013-10-15 05:42:00,
2013-10-14 22:53:00,51.0,46.0,-100.00,NE,48,3.0,5.0,82,0.00,,,0.00,0.000000,,2013-10-15 05:53:00,
2013-10-14 23:02:00,51.0,46.0,-100.00,NE,48,3.0,5.0,82,0.00,,,0.00,0.000000,,2013-10-15 06:02:00,
2013-10-14 23:12:00,51.0,46.0,-100.00,NE,48,3.0,5.0,82,0.00,,,0.00,0.000000,,2013-10-15 06:12:00,
2013-10-14 23:43:00,50.0,46.0,-100.00,NE,37,3.0,5.0,87,0.00,,,0.00,0.000000,,2013-10-15 06:43:00,
2013-10-14 23:52:00,50.0,46.0,-100.00,NE,37,3.0,5.0,87,0.00,,,0.00,0.000000,,2013-10-15 06:52:00,